HORIZONS-3E

Last updated on Tue Sep 22 2026 00:03:14 GMT+0000 (Coordinated Universal Time)

1 43633U 18074B 26264.38004351 -.00000034 00000+0 00000+0 0 9999 2 43633 0.0156 177.6953 0000774 347.1181 141.2865 1.00272759 29308
UTC large
Height (km)
Speed (km/s)
/
Latitude / Longitude
Inclination (degrees)
Orbital Period (minutes)
Azimuth
Elevation
Range (km)
Doppler Factor

Next 0 passes for location: London (51.5072 / 0.1276)

No passes found over London.
HORIZONS-3E